Radioactive Concentration measured by Seawater Radiation Monitor near Fukushima Daiichi Nuclear Power Station
Date,Time,Cs137(Bq/L),Cs134(Bq/L),Total β(Bq/L)
2017/04/16,00:00,0.56,0.045,ND
2017/04/16,00:10,0.57,0.043,ND
2017/04/16,00:20,0.56,0.043,ND
2017/04/16,00:30,0.56,0.037,9.0
2017/04/16,00:40,0.59,0.027,ND
2017/04/16,00:50,0.58,0.043,8.8
2017/04/16,01:00,0.56,0.048,8.9
2017/04/16,01:10,0.59,0.041,ND
2017/04/16,01:20,0.60,0.039,ND
2017/04/16,01:30,0.59,0.044,ND
2017/04/16,01:40,0.58,0.046,ND
2017/04/16,01:50,0.60,0.037,ND
2017/04/16,02:00,0.63,0.039,ND
2017/04/16,02:10,0.59,0.052,ND
2017/04/16,02:20,0.60,0.059,ND
2017/04/16,02:30,0.62,0.056,ND
2017/04/16,02:40,0.63,0.049,ND
2017/04/16,02:50,0.62,0.045,ND
2017/04/16,03:00,0.62,0.045,ND
2017/04/16,03:10,0.62,0.051,ND
2017/04/16,03:20,0.64,0.048,ND
2017/04/16,03:30,0.65,0.043,ND
2017/04/16,03:40,0.63,0.054,ND
2017/04/16,03:50,0.62,0.068,ND
2017/04/16,04:00,0.62,0.070,ND
2017/04/16,04:10,0.62,0.062,ND
2017/04/16,04:20,0.60,0.073,ND
2017/04/16,04:30,0.68,0.041,ND
2017/04/16,04:40,0.60,0.075,ND
2017/04/16,04:50,0.58,0.069,ND
2017/04/16,05:00,0.57,0.061,ND
2017/04/16,05:10,0.59,0.059,ND
2017/04/16,05:20,0.58,0.046,ND
2017/04/16,05:30,0.56,0.046,ND
2017/04/16,05:40,0.54,0.047,ND
2017/04/16,05:50,0.53,0.045,ND
2017/04/16,06:00,0.50,0.049,ND
2017/04/16,06:10,0.48,0.047,ND
2017/04/16,06:20,0.50,0.038,ND
2017/04/16,06:30,0.55,ND,ND
2017/04/16,06:40,0.48,0.042,ND
2017/04/16,06:50,0.49,0.048,ND
2017/04/16,07:00,0.51,0.049,ND
2017/04/16,07:10,0.51,0.053,ND
2017/04/16,07:20,0.48,0.060,ND
2017/04/16,07:30,0.48,0.050,11
2017/04/16,07:40,0.48,0.049,ND
2017/04/16,07:50,0.46,0.043,ND
2017/04/16,08:00,0.47,0.037,ND
2017/04/16,08:10,0.47,0.033,9.5
2017/04/16,08:20,0.46,0.029,ND
2017/04/16,08:30,0.58,ND,ND
2017/04/16,08:40,0.47,0.044,ND
2017/04/16,08:50,0.48,0.040,ND
2017/04/16,09:00,0.49,0.037,ND
2017/04/16,09:10,0.48,0.048,ND
2017/04/16,09:20,0.50,0.053,ND
2017/04/16,09:30,0.50,0.051,ND
2017/04/16,09:40,0.51,0.054,ND
2017/04/16,09:50,0.52,0.058,ND
2017/04/16,10:00,0.52,0.066,ND
2017/04/16,10:10,0.56,0.054,ND
2017/04/16,10:20,0.56,0.054,ND
2017/04/16,10:30,0.58,0.057,ND
2017/04/16,10:40,0.62,0.054,ND
2017/04/16,10:50,0.62,0.056,ND
2017/04/16,11:00,0.63,0.054,ND
2017/04/16,11:10,0.62,0.065,ND
2017/04/16,11:20,0.64,0.062,ND
2017/04/16,11:30,0.64,0.057,8.9
2017/04/16,11:40,0.64,0.057,ND
2017/04/16,11:50,0.62,0.056,ND
2017/04/16,12:00,0.63,0.062,ND
2017/04/16,12:10,0.64,0.061,ND
2017/04/16,12:20,0.63,0.049,ND
2017/04/16,12:30,0.61,0.055,ND
2017/04/16,12:40,0.62,0.032,13
2017/04/16,12:50,0.58,0.049,11
2017/04/16,13:00,0.55,0.040,11
2017/04/16,13:10,0.53,0.035,12
2017/04/16,13:20,0.53,0.040,12
2017/04/16,13:30,0.52,0.029,9.3
2017/04/16,13:40,0.48,0.039,ND
2017/04/16,13:50,0.48,0.036,ND
2017/04/16,14:00,0.54,ND,9.3
2017/04/16,14:10,0.53,ND,ND
2017/04/16,14:20,0.45,0.048,ND
2017/04/16,14:30,0.47,0.047,ND
2017/04/16,14:40,0.54,ND,ND
2017/04/16,14:50,0.48,0.041,ND
2017/04/16,15:00,0.48,0.047,ND
2017/04/16,15:10,0.49,0.041,ND
2017/04/16,15:20,0.48,0.050,ND
2017/04/16,15:30,0.50,0.051,ND
2017/04/16,15:40,0.51,0.060,9.5
2017/04/16,15:50,0.54,0.062,8.9
2017/04/16,16:00,0.56,0.065,9.5
2017/04/16,16:10,0.67,0.039,ND
2017/04/16,16:20,0.61,0.066,ND
2017/04/16,16:30,0.61,0.060,ND
2017/04/16,16:40,0.73,0.026,ND
2017/04/16,16:50,0.76,ND,ND
2017/04/16,17:00,0.62,0.048,ND
2017/04/16,17:10,0.61,0.053,ND
2017/04/16,17:20,0.60,0.054,ND
2017/04/16,17:30,0.61,0.045,ND
2017/04/16,17:40,0.59,0.045,ND
2017/04/16,17:50,0.59,0.050,ND
2017/04/16,18:00,0.59,0.053,ND
2017/04/16,18:10,0.63,0.039,ND
2017/04/16,18:20,0.61,0.032,ND
2017/04/16,18:30,0.61,0.031,9.2
2017/04/16,18:40,0.59,0.044,ND
2017/04/16,18:50,0.58,0.042,ND
2017/04/16,19:00,0.57,0.040,ND
2017/04/16,19:10,0.53,0.048,ND
2017/04/16,19:20,0.55,0.046,8.9
2017/04/16,19:30,0.56,0.042,ND
2017/04/16,19:40,0.53,0.048,ND
2017/04/16,19:50,0.53,0.051,ND
2017/04/16,20:00,0.51,0.053,ND
2017/04/16,20:10,0.54,0.043,ND
2017/04/16,20:20,0.51,0.050,ND
2017/04/16,20:30,0.50,0.047,ND
2017/04/16,20:40,0.54,0.039,10
2017/04/16,20:50,0.56,0.038,9.9
2017/04/16,21:00,0.58,0.031,12
2017/04/16,21:10,0.57,0.030,14
2017/04/16,21:20,0.59,0.029,10
2017/04/16,21:30,0.60,0.029,ND
2017/04/16,21:40,0.63,ND,9.5
2017/04/16,21:50,0.62,ND,9.3
2017/04/16,22:00,0.57,0.026,8.8
2017/04/16,22:10,0.61,ND,ND
2017/04/16,22:20,0.61,ND,9.0
2017/04/16,22:30,0.57,0.026,11
2017/04/16,22:40,0.60,ND,ND
2017/04/16,22:50,0.59,ND,ND
2017/04/16,23:00,0.59,ND,ND
2017/04/16,23:10,0.57,ND,ND
2017/04/16,23:20,0.56,ND,ND
2017/04/16,23:30,0.53,ND,ND
2017/04/16,23:40,0.52,ND,ND
2017/04/16,23:50,0.45,0.036,ND
